TimeHST,TemperatureF,Dew PointF,Humidity,Sea Level PressureIn,VisibilityMPH,Wind Direction,Wind SpeedMPH,Gust SpeedMPH,PrecipitationIn,Events,Conditions,WindDirDegrees,DateUTC
12:55 AM,67.3,63.5,88,30.01,10.0,Calm,Calm,-,N/A,,Clear,0,2013-07-06 10:55:00
1:55 AM,66.2,62.6,88,30.00,10.0,NW,5.8,-,N/A,,Clear,310,2013-07-06 11:55:00
2:55 AM,67.8,64.2,88,29.99,10.0,NNW,4.6,-,N/A,,Clear,330,2013-07-06 12:55:00
3:55 AM,67.8,64.2,88,29.97,10.0,North,3.5,-,N/A,,Clear,360,2013-07-06 13:55:00
4:55 AM,66.6,63.7,90,29.98,10.0,NNW,4.6,-,N/A,,Clear,340,2013-07-06 14:55:00
5:55 AM,66.6,63.3,89,29.98,10.0,NNW,4.6,-,N/A,,Clear,340,2013-07-06 15:55:00
6:55 AM,68.7,65.1,88,29.99,10.0,NW,3.5,-,N/A,,Clear,320,2013-07-06 16:55:00
7:55 AM,73.4,67.6,82,30.01,10.0,Variable,5.8,-,N/A,,Clear,0,2013-07-06 17:55:00
8:55 AM,76.3,66.2,71,30.01,10.0,Calm,Calm,-,N/A,,Clear,0,2013-07-06 18:55:00
9:55 AM,77.7,66.9,69,30.01,10.0,WNW,5.8,-,N/A,,Overcast,300,2013-07-06 19:55:00
10:55 AM,82.2,66.7,59,30.01,10.0,Variable,6.9,-,N/A,,Partly Cloudy,0,2013-07-06 20:55:00
11:55 AM,79.0,66.2,65,30.01,10.0,South,5.8,-,N/A,,Overcast,180,2013-07-06 21:55:00
12:31 PM,78.8,66.2,65,30.00,10.0,Variable,6.9,-,N/A,,Drizzle,0,2013-07-06 22:31:00
12:55 PM,77.4,67.1,71,30.00,10.0,NW,5.8,-,0.00,Rain,Light Rain,320,2013-07-06 22:55:00
1:55 PM,73.8,68.7,84,29.99,7.0,NW,6.9,-,0.04,Rain,Light Rain,320,2013-07-06 23:55:00
2:53 PM,73.4,68.0,83,29.99,10.0,NNW,6.9,-,N/A,,Scattered Clouds,330,2013-07-07 00:53:00
2:55 PM,73.0,68.9,87,29.99,10.0,NNW,5.8,-,0.02,,Scattered Clouds,330,2013-07-07 00:55:00
2:56 PM,73.4,69.8,88,29.99,10.0,NNW,6.9,-,N/A,,Scattered Clouds,330,2013-07-07 00:56:00
2:57 PM,73.4,69.8,88,29.99,10.0,NNW,8.1,-,N/A,,Scattered Clouds,330,2013-07-07 00:57:00
3:38 PM,73.4,68.0,83,29.97,10.0,NNW,6.9,-,N/A,,Light Drizzle,330,2013-07-07 01:38:00
3:46 PM,73.4,68.0,83,29.97,10.0,NW,6.9,-,N/A,,Overcast,310,2013-07-07 01:46:00
3:55 PM,74.3,68.2,81,29.97,10.0,NNW,5.8,-,0.00,,Overcast,340,2013-07-07 01:55:00
4:55 PM,75.9,68.4,77,29.96,10.0,NNW,5.8,-,N/A,,Mostly Cloudy,340,2013-07-07 02:55:00
5:55 PM,77.0,68.2,74,29.96,10.0,NE,5.8,-,N/A,,Scattered Clouds,50,2013-07-07 03:55:00